Current Version              Previous Version:    01  02  03  04  05  06  07  08  09  10  11  12  13  14  15  16  17  18  19  20  21  22  23  24  25  26  27  28  29  30  
   31  32  33  34  35  36  37  38  39  40  41  42  43  44  45  46  47  48  49  50  51  52  53  54  55  56  57  58  59  60  

[Printable]
358
ASUS44 KFWD 210401
RWRTX
NORTH TEXAS HOURLY WEATHER ROUNDUP
NATIONAL WEATHER SERVICE FORT WORTH TX
1100 PM CDT SUN APR 20 2014

NOTE: "FAIR" INDICATES FEW OR NO CLOUDS BELOW 12,000 FEET WITH NO
SIGNIFICANT WEATHER AND/OR OBSTRUCTIONS TO VISIBILITY.

TXZ118-119-210500-
DALLAS/FORT WORTH METROPLEX

CITY           SKY/WX    TMP DP  RH WIND       PRES   REMARKS
DFW AIRPORT    LGT RAIN  63  61  93 E7        30.07F FOG
DALLAS LOVE    LGT RAIN  63  61  93 NE3       30.07S
FTW MEACHAM    LGT RAIN  63  62  97 E7        30.06F FOG
DAL-EXECUTIVE  LGT RAIN  65  62  90 E5        30.08R
FTW-ALLIANCE   LGT RAIN  61  60  97 NE3       30.07S FOG
FTW-NAS-JRB    CLOUDY    65  60  84 E10       30.11S
ARLINGTON      CLOUDY    65  63  93 E5        30.07F
GRAND PRAIRIE  CLOUDY    63  63 100 NE5       30.10S
ADDISON        RAIN      63  63 100 E8        30.10F
MESQUITE       CLOUDY    62  60  93 CALM      30.09S
LANCASTER      DRIZZLE   63  60  91 CALM      30.09S
$$

TXZ091>094-102>105-117-120-121-131>134-210500-
NORTH CENTRAL TEXAS

CITY           SKY/WX    TMP DP  RH WIND       PRES   REMARKS
SHRMAN/DENISON LGT RAIN  62  58  87 S17       30.06R
BRIDGEPORT     RAIN      60  60 100 E7        30.08F
DECATUR        LGT RAIN  59  59 100 E10       30.08S
DENTON         LGT RAIN  61  60  97 E7        30.08R FOG
MCKINNEY       LGT RAIN  61  60  97 E5        30.09R FOG
GREENVILLE     LGT RAIN  61  59  94 N5        30.09F
ROCKWALL       CLOUDY    62  60  96 N6        30.08S
TERRELL        LGT RAIN  63  63 100 E7        30.09S
WAXAHACHIE     DRIZZLE   63  61  94 NE6       30.09S
CLEBURNE       LGT RAIN  63  63 100 E7        30.09S
GRANBURY       CLOUDY    66  64  91 SE6       30.06F
$$

TXZ083>090-098>101-113>116-127>130-139>142-154-155-210500-
WESTERN NORTH TEXAS

CITY           SKY/WX    TMP DP  RH WIND       PRES   REMARKS
WICHITA FALLS  CLOUDY    61  59  93 SE10      30.01R
VERNON           N/A    N/A N/A N/A N3        30.03R THUNDER
ABILENE        PTCLDY    65  62  90 S15       30.01S
ABILENE-DYESS  CLOUDY    65  63  91 S17G25    30.00F
BRECKENRIDGE   CLOUDY    66  65  95 SE9       30.02F
MINERAL WELLS  CLOUDY    64  63  96 SE10      30.04F FOG
STEPHENVILLE   CLOUDY    65  62  90 S6        30.09R
COMANCHE       CLOUDY    65  64  95 S6        30.06S
BROWNWOOD      MOCLDY    64  64 100 S7        30.06S
$$

TXZ143>147-156>162-174-175-210500-
CENTRAL TEXAS

CITY           SKY/WX    TMP DP  RH WIND       PRES   REMARKS
WACO           CLOUDY    69  63  81 CALM      30.05S
WACO-TSTC      CLOUDY    66  61  82 E5        30.05S
WACO-MCGREGOR  PTCLDY    66  59  77 S7        30.07F
CORSICANA      CLOUDY    67  62  84 N3        30.08S
MEXIA          CLOUDY    68  57  68 SE5       30.06S
TEMPLE         CLOUDY    70  54  56 S12       30.10S
KILLEEN        PTCLDY    66  57  72 SE14      30.05F
KILLEEN-SKYLRK PTCLDY   N/A N/A N/A SE8       30.05F
HAMILTON       CLOUDY    66  66 100 SE7       30.08R
LAMPASAS       PTCLDY    65  62  90 SE3       30.06S
$$

TXZ095>097-106>112-122>126-135>138-148>153-164>167-210500-
EAST TEXAS

CITY           SKY/WX    TMP DP  RH WIND       PRES   REMARKS
PARIS          CLOUDY    63  57  82 SE7       30.10F
MINEOLA        CLOUDY    68  63  83 CALM      30.10R
TYLER          CLOUDY    68  58  70 CALM      30.09R
LONGVIEW       MOCLDY    67  59  75 CALM      30.08R
ATHENS         CLOUDY    64  59  82 CALM      30.07S
PALESTINE      CLOUDY    71  55  57 CALM      30.10S
NACOGDOCHES    CLEAR     66  52  59 SW3       30.10R
LUFKIN         PTCLDY    69  53  56 S6        30.10R
$$

SUPPLEMENTAL OBSERVATIONS (CENTRAL)

CITY           SKY/WX    TMP DP  RH WIND       PRES   REMARKS
$$

SUPPLEMENTAL OBSERVATIONS (WEST)

CITY           SKY/WX    TMP DP  RH WIND       PRES   REMARKS
$$

SUPPLEMENTAL OBSERVATIONS (EAST)

CITY           SKY/WX    TMP DP  RH WIND       PRES   REMARKS
$$

SUPPLEMENTAL OBSERVATIONS ARE A COLLECTION OF AUTOMATED INSTRUMENTS
THAT ARE MAINTAINED BY A VARIETY OF FEDERAL AND STATE AGENCIES.
CERTAIN ELEMENTS...SUCH AS HUMIDITY VALUES AND SUSTAINED WIND
SPEEDS...MAY BE APPROXIMATED.